User: anonymous   Login
Location: Ceske Budejovice
(48.9830°N, 14.4670°E)
Time: 09:28:44
(UTC+01:00)
Language:

ISS - Orbit

View from above orbital plane
View from above orbital plane
View from above satellite
View from above satellite

Ground track
Ground track

The orbit data is extracted from the following two-line orbital elements,

1 25544U 98067A   20024.39372918  .00016717  00000-0  10270-3 0  9041
2 25544  51.6420 344.8891 0005543 185.0551 175.0544 15.49056594  9563
Epoch (UTC): 24 January 2020 09:26:58
Eccentricity: 0.0005543
inclination: 51.6420°
perigee height: 416 km
apogee height: 423 km
right ascension of ascending node: 344.8891°
argument of perigee: 185.0551°
revolutions per day: 15.49056594
mean anomaly at epoch: 175.0544°
orbit number at epoch: 956

The dashed part of the orbit path shows where the satellite is in the earth's shadow,  

DLR